Wind_Speed
48 49 50 47 47 43 47 46 47 49 51 55 55 59 56 50 54 59 54 54 58 53 41 31 31 35 43 51 58 60 62 59 53 54 54 55 58 63 62 64 66 67 64
54 52 51 47 45 48 52 52 52 53 56 60 60 63 53 52 59 54 54 54 50 40 32 28 24 30 34 43 51 57 63 65 64 57 59 57 52 61 60 59 58 60 63
55 52 52 51 52 54 56 55 57 58 61 61 60 58 51 56 56 52 51 52 42 33 30 25 19 19 23 26 32 42 49 57 64 63 61 59 54 56 61 59 56 58 58
57 58 56 55 55 57 56 59 60 62 63 64 65 54 54 60 52 51 49 45 34 32 25 26 22 23 18 20 21 29 34 41 54 61 63 57 55 55 57 57 55 53 54
62 62 61 61 61 61 61 62 64 66 65 66 63 51 55 54 50 52 52 36 28 24 25 25 25 25 12 13 17 20 28 35 44 52 61 56 52 54 54 54 53 49 49
63 63 64 66 63 63 66 66 68 68 69 66 56 52 54 50 50 50 45 29 22 26 30 29 29 23 17 8 10 19 27 32 38 44 51 52 49 50 51 48 49 49 48
69 68 67 69 70 70 69 70 67 68 67 62 51 53 51 47 48 53 31 24 25 31 35 34 32 26 17 8 8 14 23 29 34 35 37 40 36 44 44 38 43 42 42
75 77 74 73 70 71 72 71 72 68 59 53 51 50 47 48 49 47 27 22 35 36 37 37 37 29 17 19 15 14 20 25 28 32 30 27 23 25 40 31 25 26 23
76 74 73 73 74 72 72 73 65 59 53 53 52 49 46 45 49 36 24 26 37 41 39 41 38 25 20 20 21 21 20 21 29 31 32 37 41 44 40 37 35 28 25
78 77 78 74 72 71 69 66 62 54 54 53 50 49 44 47 47 32 21 32 40 42 42 43 34 30 31 29 33 25 22 28 27 30 34 34 41 41 41 46 43 43 42
80 78 77 77 73 72 70 65 59 55 52 49 48 45 47 39 45 30 25 34 42 41 41 47 29 31 36 36 34 27 27 29 30 32 27 29 35 39 40 40 43 45 46
87 84 77 77 74 70 67 63 61 54 50 51 48 45 37 40 40 28 28 37 42 42 44 48 38 46 40 37 34 30 30 32 32 27 31 32 36 35 39 38 38 39 40
78 79 79 79 75 72 67 63 56 51 53 47 48 43 36 37 36 26 32 44 46 41 51 45 27 42 45 36 40 39 34 35 33 31 29 33 35 34 31 33 38 38 39
79 79 79 77 77 72 65 59 54 53 56 51 47 43 39 41 34 26 35 49 43 37 42 39 39 44 42 42 32 41 33 35 33 36 33 38 40 38 35 36 33 36 37
79 77 75 71 70 65 59 59 56 57 56 50 46 42 41 41 34 29 38 54 48 38 40 35 37 38 38 38 43 42 37 37 38 38 39 43 39 36 40 40 37 35 37
79 76 73 71 67 64 62 61 59 55 56 49 46 41 40 43 37 32 41 53 58 46 43 41 40 47 40 42 39 30 33 38 49 43 43 46 45 46 40 40 41 41 38
83 81 77 74 69 70 68 60 59 57 55 52 46 43 42 41 39 35 37 55 52 56 36 38 42 50 45 41 44 34 41 40 49 49 49 49 51 51 48 44 45 46 47
80 78 78 76 80 81 77 73 70 69 62 57 49 46 46 42 42 39 38 59 56 54 50 41 46 47 47 46 44 39 46 54 53 53 55 53 53 49 48 49 47 43 41
76 70 72 75 73 71 72 72 70 69 64 58 51 50 50 45 45 43 39 59 59 58 56 50 52 46 54 51 51 47 40 55 59 57 57 55 54 53 48 48 43 43 46
75 71 69 72 70 68 74 71 65 64 62 60 53 50 51 50 48 48 40 60 66 59 62 57 56 54 53 51 54 52 42 49 55 57 59 59 60 58 57 52 49 47 50
79 77 72 71 70 67 65 68 67 64 62 59 57 53 53 54 52 52 45 47 70 67 63 64 63 55 53 56 62 55 50 45 50 58 57 57 60 58 56 52 53 54 56
83 82 79 74 71 68 65 64 67 66 64 61 60 58 58 58 56 55 51 47 63 75 73 65 63 65 59 48 52 57 57 53 49 57 60 56 55 59 62 63 60 59 58
91 86 81 80 74 71 65 65 64 64 65 66 66 64 64 64 62 59 56 54 51 66 76 74 69 67 67 62 56 55 50 47 47 60 64 63 63 60 60 58 59 62 64
97 94 86 83 80 74 72 67 68 64 68 72 71 68 67 66 64 61 61 59 56 55 67 78 76 74 70 68 69 63 63 53 54 56 57 61 68 71 70 67 67 66 64
100 101 98 90 86 80 76 73 70 68 71 72 72 71 70 69 67 65 64 62 62 58 56 66 79 77 80 73 71 70 68 69 71 63 61 62 62 61 65 67 68 69 69
112 106 106 101 94 89 83 78 77 72 72 74 73 75 73 73 72 69 67 68 66 64 61 58 62 75 75 80 74 71 65 68 73 70 73 70 66 66 68 69 70 69 70
Wind_Direction
268 269 269 270 274 277 279 280 285 292 293 297 304 306 304 298 298 302 297 295 296 293 281 270 265 247 239 232 230 227 226 226 223 227 225 227 228 227 230 231 233 236 238
267 268 270 271 274 278 277 281 286 289 295 297 301 306 299 301 302 296 298 299 295 280 264 267 261 241 239 232 229 229 229 229 228 227 227 226 228 227 229 232 234 236 239
267 267 268 270 275 274 278 280 283 291 298 298 302 303 298 302 299 298 296 299 290 265 257 249 232 233 233 235 233 230 229 230 227 228 227 228 228 227 229 232 235 238 240
263 267 267 271 271 275 278 281 285 291 298 300 302 296 302 301 294 303 301 296 284 264 237 232 210 205 219 218 225 228 231 231 226 225 224 226 228 227 227 231 234 237 239
266 269 269 270 273 276 280 283 285 289 295 298 299 295 300 297 293 304 302 289 273 229 221 202 192 199 215 232 233 236 230 226 225 222 222 225 226 229 229 231 233 237 239
265 268 270 272 276 278 280 282 286 289 292 295 293 296 299 295 304 302 298 280 240 205 195 178 182 191 189 218 249 241 228 222 221 218 220 224 227 229 233 234 236 238 239
266 266 269 271 275 276 280 281 286 289 291 291 290 297 296 298 302 308 286 269 209 193 190 177 181 187 185 224 243 241 223 218 214 211 212 216 225 232 231 234 237 238 241
266 267 270 272 273 276 279 283 285 288 287 286 293 295 293 294 304 306 280 239 193 181 186 180 185 181 200 228 252 250 222 214 208 204 196 180 169 228 226 216 211 211 229
267 268 269 270 272 275 277 281 285 286 283 289 295 292 291 300 304 295 273 215 192 186 188 194 186 173 190 218 226 231 234 206 197 200 195 185 199 213 208 202 192 186 207
261 264 267 270 270 275 276 276 283 281 283 289 289 291 288 300 304 293 249 203 190 198 195 187 176 185 200 204 219 214 221 208 199 201 204 196 198 212 211 209 203 203 216
262 264 265 266 267 269 270 276 278 281 284 284 287 286 288 295 303 292 230 202 195 196 196 182 180 196 188 208 221 206 207 216 199 192 185 190 193 206 210 210 214 218 223
262 263 262 263 266 268 272 274 277 278 280 274 283 285 286 293 298 282 228 198 194 198 193 190 184 180 196 202 211 216 217 206 206 191 199 189 196 203 207 207 213 220 224
258 259 261 263 265 267 271 272 274 274 272 270 276 283 287 293 295 268 220 198 196 193 197 192 205 198 205 206 210 220 215 209 217 207 198 200 203 201 214 221 225 226 230
258 261 262 264 266 269 270 267 265 268 268 267 271 274 283 289 286 256 216 197 193 198 201 208 209 197 205 217 216 210 205 215 227 210 204 206 209 212 207 215 224 231 233
262 262 264 264 264 265 263 261 258 262 261 265 268 272 275 283 275 248 219 201 194 199 200 188 199 200 198 204 208 215 230 226 224 220 213 214 210 215 222 219 224 230 232
254 253 255 256 255 254 253 253 254 253 258 263 266 267 269 274 264 245 214 208 208 208 202 204 210 202 211 215 224 227 227 232 218 220 218 221 224 224 219 226 229 236 236
261 256 255 254 248 249 248 250 256 253 256 263 259 259 263 261 254 242 222 212 210 206 216 223 227 216 226 227 230 231 230 229 225 221 224 228 232 231 224 228 231 236 235
255 258 255 254 253 254 256 257 258 258 257 257 254 254 261 252 247 238 229 213 212 211 211 223 227 232 227 231 235 234 222 218 222 224 223 230 232 236 239 234 236 235 245
255 253 255 253 251 252 252 251 250 253 251 250 244 246 250 245 240 234 233 215 217 215 216 222 222 231 230 235 235 238 228 223 220 222 225 230 230 230 232 231 233 235 239
252 252 255 255 252 253 253 251 247 247 245 239 238 239 241 242 236 232 230 218 215 220 221 220 223 227 233 233 232 230 234 229 225 229 231 232 232 233 236 233 237 235 237
253 250 250 253 252 250 250 250 246 243 240 236 235 234 236 238 235 230 232 227 219 214 221 224 231 233 232 235 233 236 232 233 234 233 232 234 238 238 238 236 239 241 241
252 251 249 248 250 250 248 246 248 242 239 234 235 234 234 235 235 230 230 230 222 219 216 222 229 231 225 234 240 240 241 235 237 234 238 236 238 242 244 244 244 244 245
252 251 249 248 246 247 246 246 243 243 242 235 235 233 230 231 232 230 230 230 227 222 221 220 224 226 227 233 236 244 241 237 231 231 234 240 239 242 245 246 250 252 251
249 249 248 246 244 242 242 241 243 239 238 237 233 231 231 231 231 230 229 231 229 228 226 223 224 228 230 231 236 242 242 241 241 237 236 239 243 245 247 249 253 256 256
244 245 247 245 244 241 238 239 238 238 237 235 233 232 232 230 230 230 230 231 231 230 230 230 226 228 231 233 234 244 243 245 248 249 247 246 245 244 245 248 250 251 250
240 241 243 243 243 241 237 235 237 234 234 236 234 232 233 233 230 229 229 230 232 232 231 231 232 229 230 235 239 242 242 247 248 250 250 251 248 247 245 247 246 247 249
Height
10810 10812 10812 10813 10813 10814 10815 10816 10817 10817 10815 10815 10813 10812 10809 10806 10802 10799 10795 10791 10788 10784 10784 10784 10783 10783 10789 10796 10804 10812 10819 10825 10831 10834 10839 10844 10849 10854 10859 10864 10867 10871 10874
10802 10804 10804 10805 10805 10806 10806 10808 10809 10809 10808 10807 10806 10804 10801 10797 10794 10790 10786 10781 10777 10775 10776 10778 10776 10776 10781 10787 10794 10801 10807 10814 10821 10826 10830 10836 10841 10847 10853 10858 10862 10866 10869
10794 10795 10795 10796 10797 10797 10799 10800 10801 10800 10798 10797 10796 10796 10793 10788 10784 10781 10777 10772 10767 10767 10770 10771 10772 10773 10778 10783 10788 10794 10799 10805 10812 10819 10824 10829 10835 10841 10846 10852 10856 10861 10865
10784 10786 10787 10788 10788 10789 10790 10791 10792 10791 10789 10789 10789 10787 10784 10779 10776 10772 10767 10762 10759 10759 10762 10765 10768 10770 10774 10779 10783 10789 10794 10798 10803 10809 10816 10822 10829 10835 10841 10847 10851 10856 10859
10774 10776 10777 10778 10780 10781 10782 10783 10782 10783 10781 10780 10780 10779 10774 10770 10768 10763 10758 10753 10752 10754 10757 10760 10765 10767 10770 10776 10779 10784 10787 10791 10795 10801 10810 10817 10824 10830 10836 10842 10848 10852 10855
10764 10765 10767 10769 10770 10771 10772 10774 10774 10774 10773 10773 10772 10770 10766 10763 10760 10755 10749 10746 10747 10749 10752 10756 10761 10766 10768 10773 10777 10780 10782 10785 10790 10797 10804 10814 10822 10829 10835 10839 10844 10848 10852
10753 10754 10756 10759 10760 10761 10762 10763 10765 10765 10764 10763 10763 10761 10758 10755 10751 10746 10741 10740 10742 10746 10748 10751 10756 10762 10765 10770 10773 10775 10779 10783 10789 10795 10802 10812 10824 10830 10833 10836 10840 10844 10846
10740 10740 10744 10747 10749 10750 10751 10752 10755 10756 10755 10754 10753 10753 10750 10746 10743 10739 10735 10735 10738 10742 10744 10748 10751 10756 10763 10767 10769 10772 10776 10780 10785 10791 10800 10813 10833 10822 10829 10833 10837 10839 10840
10727 10729 10729 10733 10737 10740 10741 10742 10744 10746 10746 10744 10744 10744 10742 10739 10736 10731 10730 10731 10734 10737 10741 10745 10747 10751 10756 10761 10764 10768 10773 10777 10781 10787 10794 10806 10814 10818 10823 10827 10834 10836 10831
10714 10718 10716 10720 10724 10726 10728 10732 10735 10736 10736 10735 10736 10736 10733 10733 10729 10724 10724 10726 10731 10734 10737 10740 10745 10746 10752 10755 10758 10765 10770 10772 10776 10782 10789 10797 10803 10808 10813 10819 10822 10824 10826
10701 10704 10706 10707 10712 10715 10714 10722 10723 10727 10727 10727 10726 10728 10725 10726 10723 10719 10720 10723 10728 10732 10732 10736 10738 10740 10745 10748 10754 10760 10764 10767 10772 10778 10785 10791 10796 10800 10805 10809 10813 10816 10818
10685 10688 10693 10695 10698 10705 10704 10710 10713 10716 10717 10717 10718 10720 10717 10719 10717 10714 10716 10720 10724 10728 10728 10731 10734 10737 10741 10746 10751 10755 10760 10766 10769 10774 10780 10786 10790 10793 10797 10801 10805 10809 10814
10669 10671 10676 10681 10686 10690 10695 10697 10701 10705 10705 10709 10709 10712 10709 10710 10711 10710 10710 10715 10720 10723 10724 10728 10733 10736 10738 10743 10748 10753 10757 10763 10768 10773 10776 10782 10786 10789 10794 10799 10803 10807 10810
10655 10656 10660 10668 10674 10679 10681 10684 10689 10694 10693 10698 10699 10702 10702 10701 10705 10706 10706 10710 10715 10718 10719 10722 10725 10730 10734 10741 10745 10750 10754 10760 10767 10769 10772 10778 10782 10786 10790 10794 10799 10803 10806
10637 10641 10649 10655 10659 10666 10668 10672 10677 10681 10682 10687 10687 10692 10692 10692 10697 10700 10700 10704 10710 10713 10715 10719 10723 10726 10731 10737 10742 10746 10751 10755 10761 10765 10769 10773 10777 10782 10786 10790 10795 10798 10801
10623 10631 10637 10644 10648 10651 10655 10658 10663 10668 10671 10676 10677 10680 10682 10684 10688 10691 10695 10697 10702 10709 10711 10714 10717 10723 10728 10733 10737 10740 10745 10749 10754 10760 10765 10768 10772 10776 10780 10784 10789 10792 10795
10610 10616 10626 10630 10635 10637 10641 10646 10647 10652 10659 10663 10667 10668 10673 10675 10678 10682 10687 10690 10695 10702 10706 10709 10710 10716 10720 10726 10730 10735 10738 10743 10749 10754 10758 10762 10764 10769 10773 10777 10782 10785 10787
10591 10591 10599 10607 10616 10620 10624 10631 10635 10638 10645 10650 10655 10658 10662 10666 10669 10673 10677 10681 10687 10692 10697 10699 10702 10707 10712 10718 10723 10728 10732 10736 10740 10746 10751 10754 10758 10760 10766 10770 10774 10777 10780
10570 10572 10571 10585 10594 10601 10605 10612 10617 10623 10629 10635 10640 10645 10649 10655 10659 10663 10667 10672 10678 10684 10690 10693 10695 10700 10705 10709 10715 10720 10724 10728 10733 10738 10743 10746 10749 10755 10758 10761 10765 10768 10771
10549 10554 10557 10565 10575 10583 10588 10594 10600 10607 10614 10619 10624 10632 10637 10642 10648 10652 10657 10661 10668 10674 10679 10684 10686 10691 10696 10700 10705 10711 10716 10720 10725 10730 10735 10739 10743 10747 10750 10754 10756 10758 10762
10532 10536 10542 10546 10555 10565 10572 10577 10582 10590 10598 10604 10610 10617 10623 10629 10636 10640 10645 10649 10654 10663 10668 10673 10676 10681 10687 10690 10698 10702 10707 10711 10716 10721 10726 10730 10734 10737 10740 10743 10747 10749 10753
10508 10517 10526 10528 10536 10546 10555 10559 10567 10575 10583 10592 10596 10604 10608 10614 10621 10627 10632 10638 10642 10648 10656 10661 10666 10671 10676 10680 10686 10691 10697 10702 10706 10711 10715 10720 10724 10727 10731 10734 10738 10740 10744
10485 10494 10505 10510 10518 10526 10537 10544 10549 10561 10569 10576 10579 10586 10590 10598 10606 10613 10618 10625 10630 10635 10642 10648 10654 10660 10664 10669 10675 10681 10685 10691 10695 10700 10704 10709 10713 10717 10721 10724 10727 10730 10733
10460 10471 10481 10489 10497 10507 10517 10527 10532 10544 10551 10555 10564 10571 10578 10585 10592 10600 10605 10612 10619 10624 10628 10634 10641 10648 10653 10658 10663 10669 10674 10679 10685 10690 10694 10697 10701 10705 10709 10712 10715 10718 10721
10433 10444 10456 10466 10475 10486 10496 10507 10513 10525 10531 10539 10550 10557 10563 10569 10577 10584 10591 10597 10604 10610 10615 10620 10627 10632 10639 10645 10651 10655 10660 10666 10671 10675 10680 10685 10689 10693 10696 10700 10703 10706 10709
10402 10416 10429 10439 10451 10462 10473 10486 10494 10504 10513 10523 10534 10541 10548 10554 10561 10568 10575 10580 10587 10593 10599 10605 10611 10618 10625 10632 10637 10643 10645 10650 10655 10660 10665 10670 10673 10678 10683 10686 10690 10693 10695